{"data":{"norad_id":47592,"intl_designator":"2021-009AW","name":"STARLINK-1997","alt_names":[],"object_type":"PAYLOAD","status":"ACTIVE","operator":null,"country":"US","launch_date":"2021-02-04","launch_site_code":"AFETR","launch_vehicle":null,"mission":null,"orbit_class":"UNKNOWN","rcs_meters":null,"size_class":null,"mass_kg":null,"dimensions":null,"purposes":["comms"],"wikipedia_slug":null,"has_3d_model":false,"image_url":null,"decayed_at":null,"tle_current":{"epoch":"2026-05-25T00:00:02.000160Z","epoch_age_seconds":71040,"freshness":"FRESH","line1":"1 47592U 21009AW  26145.00002315  .00235619  00000+0  97598-3 0  9994","line2":"2 47592  53.0330 340.5753 0004449 277.7145  44.9799 15.84639330  5957","mean_motion":15.8463933,"eccentricity":0.0004449,"inclination_deg":53.033,"raan_deg":340.5753,"arg_perigee_deg":277.7145,"mean_anomaly_deg":44.9799,"bstar":0.00097598,"rev_number":595,"period_min":90.872413219732,"perigee_km":314.36167036028,"apogee_km":320.31930622937,"semimajor_km":6695.4774882948,"source":"CELESTRAK","updated_at":"2026-05-25T13:38:16.558358Z"}}}